Flag for Saudi Arabia Weather past 2 weeks in Turaif, Saudi Arabia

Now
90 °F

Sunny.


Feels Like: 87 °F
Forecast: 81 / 104 °F
Wind: 6 mph from North

Location: Turaif

Current Time: Aug 20, 2014 at 11:03:02 AM

Latest Report: Aug 20, 2014 at 10:00 AM


Visibility: 10 mi

Pressure: 30.04 "Hg

Humidity: 29%

Dew point: 54 °F

Location of TuraifLocation

Historic Weather in Turaif — Graph

°F

Turaif temperature yesterday

Maximum temperature yesterday: 97 °F (at 1:00 PM)
Minimum temperature yesterday: 73 °F (at 6:00 AM)
Average temperature yesterday: 86 °F

Past Weeks' High & Low Weather Summary

 TemperatureHumidityPressure
High108 °F (Aug 14, 3:00 PM)88% (Aug 10, 6:00 AM)30.04 "Hg (Aug 10, 6:00 AM)
Low61 °F (Aug 10, 6:00 AM)10% (Aug 15, 3:00 PM)29.68 "Hg (Aug 5, 2:00 PM)
Average85 °F34%29.81 "Hg
* Reported Aug 5 9:00 AM — Aug 20 9:00 AM, Turaif, Weather by CustomWeather, © 2014

Note: Actual official high and low records may vary slightly from our data, if they occured in-between our weather recording intervals... More about our weather records

Advertising

Turaif weather history for previous 24 hours

 ConditionsComfort  
Time TempWeatherWind HumidityBarometerVisibility
9:00 AM
Aug 20
84 °FSunny.10 mph35%30.04 "Hg10 mi
8:00 AM81 °FSunny.13 mph42%30.01 "Hg10 mi
7:00 AM73 °FSunny.12 mph50%30.01 "Hg10 mi
6:00 AM72 °FClear.14 mph53%29.98 "Hg10 mi
5:00 AM72 °FClear.9 mph53%29.98 "Hg10 mi
4:00 AM73 °FClear.9 mph44%29.98 "Hg10 mi
3:00 AM72 °FClear.9 mph47%29.98 "Hg10 mi
2:00 AM77 °FClear.7 mph39%29.98 "Hg10 mi
1:00 AM79 °FClear.12 mph30%29.98 "Hg10 mi
12:00 AM81 °FClear.12 mph28%29.98 "Hg10 mi
11:00 PM
Aug 19
82 °FClear.9 mph28%29.95 "Hg10 mi
10:00 PM84 °FClear.9 mph27%29.95 "Hg10 mi
9:00 PM88 °FClear.7 mph24%29.95 "Hg10 mi
8:00 PM90 °FSunny.12 mph22%29.92 "Hg10 mi
7:00 PM93 °FSunny.12 mph20%29.89 "Hg10 mi
6:00 PM95 °FSunny.12 mph19%29.89 "Hg10 mi
5:00 PM95 °FSunny.12 mph19%29.89 "Hg10 mi
4:00 PM97 °FSunny.12 mph19%29.89 "Hg10 mi
3:00 PM97 °FSunny.7 mph19%29.86 "Hg10 mi
2:00 PM97 °FSunny.9 mph22%29.89 "Hg10 mi
1:00 PM97 °FSunny.9 mph23%29.89 "Hg10 mi
12:00 PM93 °FSunny.7 mph28%29.89 "Hg10 mi
11:00 AM90 °FSunny.5 mph31%29.92 "Hg10 mi
Weather by CustomWeather, © 2014

See weather overviewHow to use our weather pages